COSMOS 1867 COOLANT

Satellite information

Favourite Embed

Satellite Type and Status

DEBRISIN ORBIT

Key statistics

Satellite COSMOS 1867 COOLANT at a glance.

Uptime

13935

Days in orbit

Revolutions

≈ 14.3

Per day

Orbit

LEO

Low Earth Orbit

Inclination

65.0

Latest

Satellite identification and parameters

Extended collection of information and parameters for COSMOS 1867 COOLANT.

Object identification

Identified? True

Debris? False

Object name: COSMOS 1867 COOLANT

International designator: 1987-060E

Object number (NORAD): 39637

Object ID (CCSDS): 39637

Country: COMMONWEALTH OF INDEPENDENT STATES (CIS)

Current information (Y/N): Y

RCS size: SMALL

Orbital parameters

Period: 100.429 minutes

Inclination: 65.0085 deg

SMA: 7157.039 km

Apoapsis: 788.587 km

Periapsis: 769.22 km

RAAN: 93.8763 deg

Eccentricy: 0.00135302

Argument of periapsis: 265.258 deg

Mean anomaly: 94.696 deg

Mean motion: 14.33846708 rev/day

Mean motion (dot): 0.00000595 rev/day2

B* drag term: 0.00024917033 1/REarth

Two-line elements (TLE)

Creation date: Sept. 3, 2025, 2:21 a.m.

Reference frame: TEME

Reference center: EARTH

Epoch: Sept. 2, 2025, 8:18 p.m. UTC

TLE line 0: 0 COSMOS 1867 COOLANT

TLE line 1: 1 39637U 87060E 25245.84585852 .00000595 00000-0 24917-3 0 9997

TLE line 2: 2 39637 65.0085 93.8763 0013530 265.2580 94.6960 14.33846708596491

Live tracking on map

Real-time ground track for satellite COSMOS 1867 COOLANT.

In-orbit conjunctions

A list of the most updated potential collisions computed for object COSMOS 1867 COOLANT.

Target Orbit TCA Probability of collision Miss distance Type
FEDSAT SSO 2025-02-01 11:31:37 0.0003421807 126.0 (m) PAYLOAD
DELTA 2 R/B LEO 2024-12-10 05:31:29 0.0001435911 832.0 (m) ROCKET BODY
CZ-6A DEB LEO 2024-11-21 22:08:13 0.0003757505 303.0 (m) DEBRIS
CZ-6A DEB LEO 2024-11-16 15:38:39 0.0001410156 697.0 (m) DEBRIS

Associated space launch

Nuclear-powered magnetospheric research satellite

COSMOS 1867 COOLANT was lifted into orbit during the mission ‘Tsiklon-2 | Plasma-A 2’, on board a Tsiklon-2 space rocket.

The launch took place on July 10, 1987, 3:35 p.m. from 90.

For more information about the launch, click the button.

Launch to space Tsiklon-2 | Plasma-A 2
Tsiklon-2 | Plasma-A 2

Agency: N/A

Status: Launch Successful

Launch date: July 10, 1987, 3:35 p.m. UTC

Rocket: Tsiklon-2

Launch pad: 90

Location: Baikonur Cosmodrome, Republic of Kazakhstan

...

Latest news about this satellite

There are no fresh news available about this satellite. Check back as we update our databases every day.


Newsletter sign-up

Weekly statistics, charts and insights to help you stay on top of the space industry.